Home > Weather > Temple > Past weeks

Flag for U.S.A. Weather for the Past 2 Weeks in Temple, Texas, U.S.A.

Now
69 °F

Sunny.


Feels Like: 69 °F
Forecast: 44 / 62 °F
Wind: 9 mph from Northeast

Location: Fort Hood AAF Airport

Current Time: Feb 12, 2016 at 6:52:43 PM

Latest Report: Feb 12, 2016 at 5:58 PM


Visibility: 10 mi

Pressure: 30.22 "Hg

Humidity: 29%

Dew point: 35 °F

Location of TempleLocation

Historic Weather in Temple — Graph

°F

Temple Temperature Yesterday

Maximum temperature yesterday: 83 °F (at 3:58 PM)
Minimum temperature yesterday: 53 °F (at 5:58 AM)
Average temperature yesterday: 67 °F

High & Low Weather Summary for the Past Weeks

 TemperatureHumidityPressure
High83 °F (Feb 11, 3:58 PM)100% (Feb 1, 8:58 AM)30.50 "Hg (Feb 1, 8:58 AM)
Low30 °F (Feb 4, 7:58 AM)13% (Feb 8, 1:58 PM)29.49 "Hg (Feb 1, 6:58 PM)
Average55 °F45%30.09 "Hg
* Reported Jan 28 4:58 PM — Feb 12 4:58 PM, Temple, Weather by CustomWeather, © 2016

Note: Actual official high and low records may vary slightly from our data, if they occured in-between our weather recording intervals... More about our weather records

Advertising

Temple Weather History for the Previous 24 Hours

 ConditionsComfort  
Time TempWeatherWind HumidityBarometerVisibility
4:58 PM
Fri, Feb 12
72 °FSunny.13 mph25%30.20 "Hg10 mi
3:58 PM74 °FSunny.12 mph23%30.18 "Hg10 mi
2:58 PM74 °FSunny.16 mph28%30.18 "Hg10 mi
1:58 PM74 °FSunny.10 mph26%30.18 "Hg10 mi
12:58 PM73 °FSunny.15 mph26%30.21 "Hg10 mi
11:58 AM70 °FSunny.10 mph33%30.23 "Hg7 mi
10:58 AM64 °FSunny.8 mph38%30.23 "Hg10 mi
9:58 AM58 °FSunny.7 mph46%30.24 "Hg7 mi
8:58 AM54 °FSunny.8 mph53%30.21 "Hg7 mi
7:58 AM48 °FSunny.8 mph65%30.18 "Hg9 mi
6:58 AM47 °FClear.7 mph64%30.17 "Hg10 mi
5:58 AM50 °FClear.6 mph56%30.13 "Hg10 mi
4:58 AM51 °FClear.7 mph56%30.11 "Hg10 mi
3:58 AM54 °FClear.No wind55%30.09 "Hg10 mi
2:58 AM56 °FClear.1 mph49%30.09 "Hg10 mi
1:58 AM59 °FClear.2 mph44%30.08 "Hg10 mi
12:58 AM60 °FClear.6 mph41%30.06 "Hg10 mi
11:58 PM
Thu, Feb 11
61 °FClear.1 mph38%30.07 "Hg10 mi
10:58 PM64 °FClear.7 mph33%30.07 "Hg10 mi
9:58 PM66 °FClear.8 mph32%30.06 "Hg10 mi
8:58 PM65 °FClear.6 mph34%30.06 "Hg10 mi
7:58 PM65 °FClear.6 mph35%30.06 "Hg10 mi
6:58 PM69 °FClear.6 mph30%30.04 "Hg10 mi
Weather by CustomWeather, © 2016

See weather overviewHow to use our weather pages